Regional Weather Roundup
Issued by NWS

Home | Current Version | Previous Version | Graphics & Text | Print | Product List | Glossary On
Versions: 1 2 3 4 5 6 7 8 9 10 11 12 13 14 15 16 17 18 19 20 21 22 23 24 25 26 27 28 29 30 31 32 33 34 35 36 37 38 39 40 41 42 43 44 45 46 47 48 49 50
000
ASUS43 KBIS 181310
RWRND

NORTH DAKOTA REGIONAL WEATHER ROUNDUP
NATIONAL WEATHER SERVICE BISMARCK ND
800 AM CDT SAT APR 18 2015

NOTE: "FAIR" INDICATES FEW OR NO CLOUDS BELOW 12,000 FEET WITH NO
SIGNIFICANT WEATHER AND/OR OBSTRUCTIONS TO VISIBILITY.


NDZ001>003-009>011-017-181400-
NORTHWEST NORTH DAKOTA

CITY           SKY/WX    TMP DP  RH WIND       PRES   REMARKS
WILLISTON      CLEAR     43  29  57 CALM      29.98F
MINOT          FAIR      35  27  72 SE6       30.04F
MINOT AFB      SUNNY     33  30  86 SE6       30.03F
$$

NDZ018>021-031>035-040>046-181400-
SOUTHWEST NORTH DAKOTA

CITY           SKY/WX    TMP DP  RH WIND       PRES   REMARKS
BISMARCK       SUNNY     38  28  67 E7        30.06S
DICKINSON      PTCLDY    38  28  67 SE3       29.99S
GARRISON         N/A     39  31  72 E7        30.04F
HETTINGER ARPT CLEAR     37  30  75 E3        30.02S
$$

NDZ004>008-012>016-024-026-027-054-181400-
NORTHEAST NORTH DAKOTA

CITY           SKY/WX    TMP DP  RH WIND       PRES   REMARKS
GRAND FORKS    MOSUNNY   39  31  72 E9        30.14S
GRND FRKS AFB  SUNNY     36  29  75 SE5       30.14S
DEVILS LAKE    SUNNY     39  28  65 SE12      30.09F
$$

NDZ022-023-025-028>030-036>039-047>053-181400-
SOUTHEAST NORTH DAKOTA

CITY           SKY/WX    TMP DP  RH WIND       PRES   REMARKS
FARGO          MOSUNNY   40  26  57 CALM      30.11R
JAMESTOWN      MOSUNNY   40  29  64 E7        30.07S
$$



USA.gov is the U.S. government's official web portal to all federal, state and local government web resources and services.